Auburn-Lewiston, ME

6:07 AM EDT on September 23, 2017 (GMT -0400)
Auburn-Lewiston Municipal

Weather History for KLEW - April, 2014

Change the Weather History Date:

Sunday, April 6, 2014

  Actual Average Record
Temperature  
Mean Temperature 40 °F -  
Max Temperature 51 °F 46 °F 59 °F (1999)
Min Temperature 28 °F 28 °F 12 °F (2016)
Degree Days  
Heating Degree Days 24    
Moisture  
Dew Point 19 °F    
Average Humidity 45    
Maximum Humidity 74    
Minimum Humidity 22    
Precipitation  
Precipitation 0.00 in - - ()
Sea Level Pressure  
Sea Level Pressure 29.99 in    
Wind  
Wind Speed 10 mph (NW)    
Max Wind Speed 20 mph    
Max Gust Speed 26 mph    
Visibility 10 miles    
Events      
Averages and records for this station are not official NWS values.
T = Trace of Precipitation, MM = Missing Value Source: NWS Daily Summary

Daily Weather History Graph

Daily Weather History Graph

Search for Another Location

Airport or City:

Trip Planner

Search our weather history database for the weather conditions in past years. The results will help you decide how hot, cold, wet, or windy it might be!

Date:

Astronomy

Apr. 06, 2014 Rise Set
Actual Time 6:13 AM EDT 7:14 PM EDT
Civil Twilight 5:44 AM EDT 7:43 PM EDT
Nautical Twilight 5:08 AM EDT 8:19 PM EDT
Astronomical Twilight 4:32 AM EDT 8:56 PM EDT
Moon 11:04 AM EDT (4/6) 1:14 AM EDT (4/6)
Length of Visible Light 13h 59m
Length of Day
13h 00m
Waxing Crescent, 43% of the Moon is Illuminated
Apr 6
Waxing Crescent
Apr 7
First Quarter
Apr 15
Full
Apr 22
Last Quarter
Apr 29
New

Hourly Weather History & Observations

Time (EDT) Temp. Windchill Dew Point Humidity Pressure Visibility Wind Dir Wind Speed Gust Speed Precip Events Conditions
12:15 AM 37.4 °F 31.4 °F 23.0 °F 56% 29.82 in 10.0 mi West 8.1 mph 16.1 mph N/A   Overcast
12:35 AM 35.6 °F 29.9 °F 23.0 °F 60% 29.82 in 10.0 mi WNW 6.9 mph - N/A   Overcast
12:55 AM 35.6 °F 32.8 °F 23.0 °F 60% 29.83 in 10.0 mi WNW 3.5 mph - N/A   Overcast
1:15 AM 35.6 °F 29.2 °F 23.0 °F 60% 29.84 in 10.0 mi NW 8.1 mph - N/A   Overcast
1:35 AM 35.6 °F 27.1 °F 21.2 °F 56% 29.84 in 10.0 mi WNW 12.7 mph - N/A   Overcast
1:55 AM 35.6 °F 27.5 °F 21.2 °F 56% 29.84 in 10.0 mi WNW 11.5 mph 16.1 mph N/A   Overcast
2:15 AM 35.6 °F 27.1 °F 21.2 °F 56% 29.84 in 10.0 mi WNW 12.7 mph 19.6 mph N/A   Overcast
2:35 AM 35.6 °F 28.6 °F 21.2 °F 56% 29.85 in 10.0 mi NW 9.2 mph - N/A   Overcast
2:55 AM 35.6 °F 29.2 °F 21.2 °F 56% 29.86 in 10.0 mi WNW 8.1 mph - N/A   Overcast
3:15 AM 35.6 °F 26.6 °F 19.4 °F 52% 29.86 in 10.0 mi NW 13.8 mph - N/A   Overcast
3:35 AM 35.6 °F 28.0 °F 21.2 °F 56% 29.87 in 10.0 mi WNW 10.4 mph 20.7 mph N/A   Overcast
3:55 AM 35.6 °F 28.6 °F 21.2 °F 56% 29.87 in 10.0 mi WNW 9.2 mph 19.6 mph N/A   Overcast
4:15 AM 35.6 °F 27.5 °F 21.2 °F 56% 29.88 in 10.0 mi WNW 11.5 mph 19.6 mph N/A   Overcast
4:35 AM 35.6 °F 27.5 °F 19.4 °F 52% 29.88 in 10.0 mi WNW 11.5 mph - N/A   Overcast
4:55 AM 35.6 °F 26.6 °F 21.2 °F 56% 29.89 in 10.0 mi NW 13.8 mph 24.2 mph N/A   Overcast
5:15 AM 35.6 °F 28.6 °F 21.2 °F 56% 29.90 in 10.0 mi NW 9.2 mph 18.4 mph N/A   Overcast
5:35 AM 35.6 °F 28.6 °F 21.2 °F 56% 29.91 in 10.0 mi NW 9.2 mph - N/A   Overcast
5:55 AM 35.6 °F 29.2 °F 21.2 °F 56% 29.92 in 10.0 mi NNW 8.1 mph - N/A   Overcast
6:15 AM 35.6 °F 29.2 °F 21.2 °F 56% 29.94 in 10.0 mi NNW 8.1 mph - N/A   Overcast
6:35 AM 35.6 °F 26.6 °F 21.2 °F 56% 29.95 in 10.0 mi NW 13.8 mph - N/A   Overcast
6:55 AM 35.6 °F 26.2 °F 19.4 °F 52% 29.95 in 10.0 mi NW 15.0 mph 26.5 mph N/A   Mostly Cloudy
7:15 AM 35.6 °F 25.2 °F 19.4 °F 52% 29.96 in 10.0 mi NW 18.4 mph 26.5 mph N/A   Partly Cloudy
7:35 AM 35.6 °F 25.9 °F 19.4 °F 52% 29.98 in 10.0 mi NW 16.1 mph 21.9 mph N/A   Clear
7:55 AM 35.6 °F 28.0 °F 19.4 °F 52% 29.99 in 10.0 mi NW 10.4 mph 23.0 mph N/A   Scattered Clouds
8:15 AM 35.6 °F 27.5 °F 19.4 °F 52% 30.00 in 10.0 mi NNW 11.5 mph - N/A   Mostly Cloudy
8:35 AM 35.6 °F 26.2 °F 19.4 °F 52% 30.00 in 10.0 mi NNW 15.0 mph 19.6 mph N/A   Mostly Cloudy
8:55 AM 37.4 °F 28.9 °F 19.4 °F 48% 30.01 in 10.0 mi NW 13.8 mph - N/A   Partly Cloudy
9:15 AM 37.4 °F 29.3 °F 19.4 °F 48% 30.01 in 10.0 mi NW 12.7 mph - N/A   Partly Cloudy
9:35 AM 37.4 °F 28.5 °F 19.4 °F 48% 30.02 in 10.0 mi NW 15.0 mph 23.0 mph N/A   Scattered Clouds
9:55 AM 37.4 °F 29.3 °F 19.4 °F 48% 30.02 in 10.0 mi WNW 12.7 mph 26.5 mph N/A   Partly Cloudy
10:15 AM 39.2 °F 31.2 °F 19.4 °F 45% 30.02 in 10.0 mi NNW 13.8 mph 21.9 mph N/A   Clear
10:35 AM 39.2 °F 33.0 °F 19.4 °F 45% 30.03 in 10.0 mi NNW 9.2 mph 20.7 mph N/A   Clear
10:55 AM 39.2 °F 30.8 °F 19.4 °F 45% 30.02 in 10.0 mi WNW 15.0 mph 25.3 mph N/A   Clear
11:15 AM 41.0 °F 34.7 °F 19.4 °F 42% 30.02 in 10.0 mi NNW 10.4 mph 20.7 mph N/A   Clear
11:35 AM 41.0 °F 35.2 °F 19.4 °F 42% 30.03 in 10.0 mi WNW 9.2 mph 19.6 mph N/A   Clear
11:55 AM 41.0 °F 33.9 °F 19.4 °F 42% 30.02 in 10.0 mi NNW 12.7 mph 17.3 mph N/A   Clear
12:15 PM 42.8 °F 34.3 °F 17.6 °F 36% 30.01 in 10.0 mi NNW 19.6 mph 23.0 mph N/A   Clear
12:35 PM 42.8 °F 36.6 °F 17.6 °F 36% 30.01 in 10.0 mi West 11.5 mph 25.3 mph N/A   Clear
12:55 PM 44.6 °F 36.9 °F 17.6 °F 34% 30.01 in 10.0 mi NNW 18.4 mph 26.5 mph N/A   Clear
1:15 PM 44.6 °F 38.8 °F 17.6 °F 34% 30.01 in 10.0 mi West 11.5 mph 19.6 mph N/A   Clear
1:35 PM 46.4 °F 40.1 °F 17.6 °F 32% 30.00 in 10.0 mi NNW 15.0 mph 20.7 mph N/A   Clear
1:55 PM 46.4 °F 41.1 °F 15.8 °F 29% 30.00 in 10.0 mi WNW 11.5 mph 21.9 mph N/A   Clear
2:15 PM 46.4 °F 39.5 °F 15.8 °F 29% 30.00 in 10.0 mi NW 17.3 mph 23.0 mph N/A   Clear
2:35 PM 48.2 °F - 15.8 °F 27% 30.00 in 10.0 mi NW 15.0 mph 23.0 mph N/A   Clear
2:55 PM 48.2 °F - 15.8 °F 27% 30.00 in 10.0 mi West 9.2 mph 18.4 mph N/A   Clear
3:15 PM 48.2 °F - 15.8 °F 27% 30.00 in 10.0 mi WSW 6.9 mph - N/A   Clear
3:35 PM 50.0 °F - 15.8 °F 26% 30.01 in 10.0 mi West 10.4 mph - N/A   Clear
3:55 PM 50.0 °F - 14.0 °F 24% 30.01 in 10.0 mi West 9.2 mph - N/A   Clear
4:15 PM 51.8 °F - 15.8 °F 24% 30.01 in 10.0 mi West 10.4 mph - N/A   Clear
4:35 PM 51.8 °F - 14.0 °F 22% 30.02 in 10.0 mi NW 15.0 mph 19.6 mph N/A   Clear
4:55 PM 51.8 °F - 15.8 °F 24% 30.02 in 10.0 mi NW 12.7 mph 16.1 mph N/A   Clear
5:15 PM 51.8 °F - 15.8 °F 24% 30.02 in 10.0 mi WNW 12.7 mph 18.4 mph N/A   Clear
5:35 PM 51.8 °F - 15.8 °F 24% 30.03 in 10.0 mi WNW 10.4 mph 19.6 mph N/A   Clear
5:55 PM 50.0 °F - 15.8 °F 26% 30.03 in 10.0 mi NW 12.7 mph 18.4 mph N/A   Clear
6:15 PM 50.0 °F - 15.8 °F 26% 30.04 in 10.0 mi NW 9.2 mph - N/A   Clear
6:35 PM 50.0 °F - 15.8 °F 26% 30.04 in 10.0 mi NW 8.1 mph - N/A   Clear
6:55 PM 48.2 °F - 17.6 °F 30% 30.04 in 10.0 mi NW 6.9 mph - N/A   Clear
7:15 PM 48.2 °F - 17.6 °F 30% 30.05 in 10.0 mi NNW 4.6 mph - N/A   Clear
7:35 PM 46.4 °F 44.3 °F 17.6 °F 32% 30.05 in 10.0 mi NW 4.6 mph - N/A   Clear
7:55 PM 46.4 °F - 17.6 °F 32% 30.06 in 10.0 mi Calm Calm - N/A   Clear
8:15 PM 44.6 °F - 17.6 °F 34% 30.07 in 10.0 mi Calm Calm - N/A   Clear
8:35 PM 39.2 °F - 19.4 °F 45% 30.08 in 10.0 mi Calm Calm - N/A   Clear
8:55 PM 39.2 °F 37.0 °F 21.2 °F 49% 30.08 in 10.0 mi SW 3.5 mph - N/A   Clear
9:15 PM 41.0 °F 39.0 °F 19.4 °F 42% 30.08 in 10.0 mi NNW 3.5 mph - N/A   Clear
9:35 PM 39.2 °F 34.2 °F 19.4 °F 45% 30.09 in 10.0 mi SSE 6.9 mph - N/A   Clear
9:55 PM 37.4 °F - 19.4 °F 48% 30.09 in 10.0 mi Calm Calm - N/A   Clear
10:15 PM 33.8 °F - 21.2 °F 60% 30.11 in 10.0 mi Calm Calm - N/A   Clear
10:35 PM 33.8 °F 30.8 °F 19.4 °F 56% 30.12 in 10.0 mi South 3.5 mph - N/A   Clear
10:55 PM 30.2 °F - 21.2 °F 69% 30.12 in 10.0 mi Calm Calm - N/A   Clear
11:15 PM 30.2 °F - 21.2 °F 69% 30.13 in 10.0 mi Calm Calm - N/A   Clear
11:35 PM 30.2 °F - 21.2 °F 69% 30.13 in 10.0 mi Calm Calm - N/A   Clear
11:55 PM 28.4 °F - 21.2 °F 74% 30.13 in 10.0 mi Calm Calm - N/A   Clear